Temperature
17 17 17 17 17 17 17 17 17 17 17 17 17 17 17 17 17 17 17 17 17 17 17 17 17 17 16 16 16 16 16 16 16 16 16 16 16 16 16 16 16 16 15
17 17 17 17 17 17 17 17 17 17 17 17 17 17 17 17 17 16 17 17 17 17 17 17 17 17 16 16 16 16 16 16 16 16 16 16 16 16 16 16 16 16 15
17 17 17 17 17 17 17 17 17 17 17 17 17 17 17 17 17 16 16 16 16 17 17 17 17 17 17 16 16 16 16 16 16 16 16 16 16 16 16 16 16 16 15
17 17 17 17 17 17 17 17 17 17 17 17 17 17 17 17 17 17 17 16 16 16 17 17 17 17 17 17 16 16 16 16 16 16 16 16 16 16 16 16 16 15 15
18 17 17 17 17 17 17 17 17 17 17 17 17 17 17 17 17 17 17 16 16 16 16 17 17 17 17 17 17 16 16 16 16 16 16 16 16 16 16 16 15 15 15
18 17 18 17 17 17 17 17 17 17 17 17 18 18 17 17 17 17 17 17 17 16 16 16 16 17 17 17 17 17 16 16 16 16 16 16 16 16 16 16 15 15 15
18 18 18 18 17 17 17 17 17 17 17 17 17 18 18 18 18 17 17 17 17 17 17 16 16 16 16 17 17 17 17 16 16 16 16 16 16 16 16 16 15 15 15
18 18 18 18 17 17 17 17 17 17 17 17 17 18 18 18 18 18 18 17 17 17 17 17 17 17 16 16 17 17 17 17 16 16 16 16 16 16 16 16 16 15 15
18 18 18 18 18 17 17 17 17 17 17 17 17 17 18 19 19 19 18 18 18 17 17 17 17 17 17 16 16 17 17 17 17 16 16 16 16 16 16 16 16 15 15
18 18 18 18 18 18 18 17 17 17 17 17 17 17 17 18 18 19 18 18 18 18 18 18 17 17 17 17 17 17 17 17 17 17 16 16 16 16 16 16 16 16 15
18 18 18 18 18 18 18 18 17 17 17 17 17 17 17 17 17 18 18 19 18 18 18 18 18 17 17 17 17 17 17 17 17 17 16 16 16 16 16 16 16 16 15
18 18 18 18 18 18 18 18 18 17 17 17 17 17 17 18 18 18 18 18 19 19 18 18 18 18 17 17 17 17 17 17 17 17 17 16 16 16 16 16 16 16 16
18 18 18 18 18 18 18 18 18 17 17 17 17 17 17 17 17 18 18 18 19 19 18 18 18 18 18 17 17 17 17 17 17 17 17 16 16 16 16 16 16 16 16
18 18 18 18 18 18 18 18 17 17 17 17 17 17 17 17 17 17 17 17 18 18 18 18 18 18 18 17 17 17 17 17 17 17 17 16 16 16 16 16 16 16 16
18 18 18 18 18 18 18 18 17 17 17 17 17 17 17 17 17 17 17 17 17 17 18 18 18 18 17 17 17 17 17 17 17 17 17 17 16 16 16 16 16 16 16
18 18 18 18 18 18 18 17 17 17 17 17 17 17 17 17 17 17 17 17 17 17 17 18 18 18 17 17 17 17 17 17 17 17 17 17 16 16 16 16 16 16 16
18 18 18 18 18 17 17 17 17 17 17 17 17 17 17 17 17 17 17 17 17 17 16 17 17 17 17 17 17 17 17 17 17 17 16 16 16 16 16 16 16 16 16
18 18 17 17 17 17 17 17 17 17 17 17 17 17 17 17 16 17 17 17 17 17 16 16 17 17 16 16 16 16 16 16 16 16 16 16 16 16 16 16 16 16 16
18 17 17 17 17 17 17 17 17 17 17 17 16 16 16 16 16 16 16 16 16 16 16 16 16 16 16 16 16 16 16 16 16 16 16 16 16 16 16 16 16 16 15
17 17 17 17 17 17 17 17 17 17 17 16 16 16 16 16 16 16 16 16 16 16 16 16 16 16 16 16 16 15 16 16 16 16 16 16 16 16 16 16 15 15 15
17 17 17 17 17 16 16 17 16 16 16 16 16 16 16 16 16 16 16 16 16 16 16 16 15 15 15 15 15 15 15 15 15 15 15 15 15 15 15 15 15 15 15
17 17 16 16 16 16 16 16 16 16 16 16 16 16 15 15 15 15 16 15 15 15 15 15 15 15 15 15 15 15 15 15 15 15 14 15 15 15 15 14 15 15 15
16 16 16 16 16 16 16 16 16 16 15 15 15 15 15 15 15 15 15 15 15 15 15 14 14 14 14 14 14 14 14 14 14 14 14 14 14 14 14 14 14 14 14
16 16 15 15 15 15 15 15 15 15 15 15 15 15 15 15 14 14 14 14 14 14 14 14 14 14 14 14 14 13 13 13 13 13 13 13 13 13 13 13 13 13 13
15 15 15 15 15 15 15 15 15 15 15 14 14 14 14 14 14 14 14 14 13 13 13 13 13 13 13 13 13 13 13 13 13 13 13 13 13 13 13 13 13 13 12
15 14 14 14 14 14 15 15 14 14 14 14 13 13 13 13 13 13 13 13 13 13 13 13 13 13 13 12 12 12 12 12 12 12 12 12 12 12 12 12 12 12 11
Wind_Speed
4 5 4 3 4 5 5 3 4 4 3 3 3 3 3 3 4 4 8 10 9 9 9 9 9 9 8 8 8 8 8 8 8 8 8 8 8 8 7 7 7 7 7
4 4 4 3 3 3 3 2 4 3 2 2 2 2 2 3 3 4 5 10 10 9 9 9 9 9 9 8 8 8 8 8 9 9 8 8 8 8 8 8 8 7 7
5 4 3 3 3 3 3 2 2 2 2 2 2 2 2 2 2 3 3 5 9 11 10 9 9 9 9 9 9 9 9 9 9 10 10 9 9 9 9 9 8 8 8
5 4 3 3 3 3 3 3 2 2 1 1 2 2 2 2 3 3 4 5 5 7 12 12 11 10 10 10 10 10 10 10 11 11 11 11 10 10 10 10 10 9 9
6 5 3 3 4 3 3 3 3 2 2 2 2 3 3 3 3 5 5 5 5 5 7 13 13 12 12 12 11 12 12 12 12 12 13 13 12 12 12 12 12 11 11
7 6 5 5 5 4 3 2 2 2 3 3 3 2 3 3 4 5 6 6 6 7 7 7 10 13 15 14 13 13 13 13 14 14 14 14 14 14 14 13 13 13 12
8 7 5 5 5 4 4 4 4 5 5 3 3 4 5 6 6 6 6 6 7 8 8 8 9 8 11 17 16 15 15 14 15 15 15 16 16 16 16 15 15 15 14
9 8 7 6 5 5 6 6 5 5 4 4 4 3 4 4 6 7 7 7 8 8 9 10 10 9 9 9 13 18 17 16 16 16 16 17 17 17 17 17 16 16 16
10 9 8 7 6 7 6 7 7 7 6 5 5 4 3 3 2 4 6 7 7 7 8 8 10 11 12 10 9 16 19 18 17 17 17 17 17 18 18 18 17 17 17
9 9 9 8 7 7 6 8 7 7 7 6 5 6 6 4 4 3 5 6 8 9 9 8 9 11 12 12 11 11 15 18 18 18 17 17 18 18 19 19 19 18 19
9 9 9 8 8 7 8 8 7 8 7 8 6 6 6 6 8 7 6 5 6 7 8 9 8 9 11 12 11 13 16 18 19 19 18 19 19 19 19 19 19 19 19
7 9 9 8 8 8 8 8 8 9 8 8 8 7 7 6 6 7 8 7 6 6 6 7 8 9 10 11 13 11 14 17 19 19 19 19 19 19 19 19 19 19 19
7 7 8 7 8 8 9 8 8 9 9 9 9 8 8 8 8 7 8 8 8 6 6 7 8 8 9 10 9 11 14 17 18 19 19 19 19 19 19 18 18 19 19
6 6 7 8 8 8 9 8 8 9 9 10 11 10 8 9 8 8 8 8 8 8 7 8 6 6 7 8 7 9 11 15 17 18 19 19 19 18 18 18 18 18 18
6 6 7 7 8 8 8 8 8 9 9 10 10 10 10 9 9 9 8 8 9 9 8 7 7 5 5 7 6 8 10 11 15 16 17 17 17 17 17 17 18 18 19
6 6 7 7 8 8 8 8 8 8 8 9 8 9 9 9 8 8 8 8 8 9 9 7 6 6 4 6 7 9 10 10 13 16 16 16 16 16 16 16 17 18 18
6 6 7 7 7 7 7 7 8 8 9 9 9 9 10 10 8 8 8 8 9 9 10 10 8 6 6 8 6 7 9 10 10 14 16 16 16 15 15 15 15 16 17
6 6 6 6 6 6 6 7 8 8 8 9 9 9 10 8 9 9 8 9 8 8 9 11 9 7 7 7 7 8 8 9 9 11 15 16 16 16 15 15 15 15 15
5 5 4 5 5 5 5 5 6 7 7 8 8 8 9 9 9 7 7 8 7 8 8 9 9 6 6 6 6 7 9 7 9 9 12 14 15 15 15 14 14 14 15
4 3 3 3 4 4 4 4 5 6 6 6 6 7 7 7 8 8 7 7 7 7 7 7 7 6 5 5 5 6 6 6 6 7 6 8 11 14 14 14 14 14 14
3 3 2 2 2 2 3 4 4 4 4 4 4 4 4 4 4 5 5 5 5 5 5 5 5 5 5 4 5 5 6 6 5 5 6 7 7 8 10 12 14 13 13
3 2 2 1 1 1 4 4 4 3 2 3 3 3 3 2 1 1 1 2 2 4 5 4 4 5 5 5 4 5 5 5 5 4 5 6 6 6 6 6 8 11 13
3 2 2 1 1 3 4 3 3 2 2 2 2 2 2 2 2 1 2 2 1 1 2 3 4 5 5 5 5 6 5 5 5 4 4 5 5 5 4 3 5 7 9
3 3 2 2 2 3 4 3 2 1 2 2 3 3 2 3 4 3 2 3 3 4 3 2 2 3 4 5 4 5 5 4 5 4 3 5 5 5 5 3 3 6 7
3 3 2 2 2 3 5 4 2 1 2 3 4 5 4 3 6 4 3 3 3 3 4 4 4 3 4 5 5 3 3 3 4 3 2 4 4 4 4 4 3 5 7
3 3 3 4 4 4 6 6 3 2 3 4 4 5 8 7 7 5 3 3 3 3 4 4 4 4 4 5 4 4 4 4 4 3 3 3 3 3 4 3 3 2 3
Wind_Direction
138 127 124 132 142 131 142 137 128 123 125 131 131 123 114 106 114 125 130 150 162 165 165 167 169 169 171 171 170 171 172 170 169 170 170 169 169 169 171 171 172 170 170
136 142 149 146 136 142 128 134 132 140 151 133 137 134 143 128 128 139 144 154 169 177 181 182 182 181 184 185 184 186 188 186 185 185 185 186 186 185 187 189 186 187 188
150 164 155 168 155 147 141 161 142 167 183 168 157 158 159 167 151 152 163 166 169 181 190 194 197 197 198 199 198 199 200 199 198 198 199 200 198 197 197 198 199 201 201
172 185 175 174 161 178 177 172 193 209 194 193 176 188 167 170 187 184 192 195 191 181 186 195 203 207 208 210 210 209 210 210 209 210 210 209 208 207 208 210 211 212 211
190 200 191 171 195 204 207 220 169 221 211 218 210 204 210 203 199 212 208 208 205 208 194 181 199 210 215 218 217 217 217 217 217 218 218 218 216 215 217 219 221 220 219
199 209 200 190 209 214 215 226 214 231 246 236 251 249 242 229 225 219 220 212 207 213 217 202 198 207 213 219 221 222 222 221 222 223 223 223 221 220 221 222 225 224 223
205 213 217 189 214 219 226 229 226 218 227 226 238 243 240 230 227 228 228 227 213 216 218 217 224 220 204 210 217 223 226 226 226 227 226 225 225 223 223 223 225 226 226
212 211 213 211 210 221 226 229 229 242 238 219 241 261 258 235 219 223 219 223 228 220 221 219 222 227 238 217 209 214 224 228 230 230 230 228 228 226 224 224 226 226 226
216 223 219 224 220 226 229 231 229 235 242 236 230 242 262 266 274 215 221 227 226 229 230 227 224 224 229 235 226 209 216 225 230 232 232 230 230 228 226 226 226 227 229
221 222 227 230 230 234 236 237 230 234 241 243 230 232 247 276 277 266 230 222 220 227 235 236 229 223 225 231 231 231 215 221 227 231 233 233 232 231 229 229 230 230 231
226 226 225 230 232 236 239 243 240 236 239 244 244 236 236 238 245 260 267 254 233 230 227 230 234 235 229 230 233 231 213 220 226 231 234 235 233 232 231 232 233 232 232
225 226 226 227 231 236 236 237 239 237 241 245 248 245 242 245 246 249 261 262 256 245 233 235 237 236 236 235 236 224 215 222 228 231 234 235 234 233 233 233 233 233 234
223 220 227 229 235 235 237 238 237 242 240 241 240 243 245 247 256 258 263 268 270 263 244 239 235 239 241 238 236 216 223 224 229 231 233 234 234 233 233 233 234 235 236
234 228 227 231 238 242 241 238 243 240 239 240 242 242 247 248 249 249 252 263 267 264 253 253 247 238 244 243 239 217 236 223 227 230 232 233 233 234 233 232 233 235 237
232 226 231 235 238 242 245 243 246 246 242 241 243 239 241 249 248 248 248 249 256 265 265 251 248 240 240 246 235 240 247 232 226 228 230 232 233 233 233 234 234 236 236
235 232 234 240 242 244 245 248 251 248 246 246 248 250 248 250 249 249 249 249 248 255 265 268 253 253 250 258 226 237 244 235 230 228 230 230 231 233 234 235 236 236 236
229 235 236 242 245 246 247 245 251 251 248 250 251 250 250 253 250 249 245 244 245 245 256 266 266 258 245 258 253 245 248 243 237 217 218 224 227 229 231 233 235 237 237
224 231 236 242 249 249 252 253 254 254 254 256 256 256 257 255 250 251 251 249 247 244 251 262 268 265 251 253 253 251 252 246 247 215 210 218 224 227 229 230 232 234 235
217 223 228 241 252 256 256 258 261 264 265 265 264 260 259 259 258 255 254 255 253 250 248 257 264 268 265 259 257 256 253 251 252 229 207 212 217 220 223 225 227 230 232
212 217 221 236 251 264 275 276 271 269 272 277 273 266 263 260 260 259 255 255 256 258 254 256 264 270 268 262 257 260 261 247 254 257 240 221 210 211 216 219 225 228 230
207 199 193 220 244 255 288 287 280 277 283 291 297 289 279 277 286 276 271 267 262 258 261 259 263 267 268 269 265 264 266 262 253 259 260 245 221 220 216 217 222 225 228
179 164 160 183 203 321 15 350 317 306 318 318 318 315 307 306 282 273 304 310 294 268 269 270 271 277 283 281 283 280 279 273 270 262 260 264 257 250 238 229 203 210 220
143 128 115 104 71 36 30 10 348 339 1 357 353 343 338 0 2 19 85 105 65 30 304 287 291 296 297 298 293 284 280 281 281 290 285 276 274 269 261 243 173 187 210
124 114 108 98 78 42 45 26 5 43 29 18 14 15 18 16 16 18 46 60 46 37 31 9 344 337 339 336 308 285 281 268 267 274 274 271 279 276 274 263 181 190 206
118 113 102 80 60 49 51 28 359 75 72 56 44 34 26 31 29 24 60 67 57 45 61 68 54 33 18 7 344 317 307 290 288 295 303 280 287 291 286 273 229 205 210
125 118 96 77 64 50 47 36 9 73 76 70 61 53 47 38 33 33 53 57 51 25 20 38 51 44 30 31 21 360 340 322 317 317 350 318 300 308 289 279 276 256 231
Height
1576 1577 1578 1578 1580 1581 1582 1582 1583 1583 1584 1584 1585 1586 1586 1587 1587 1588 1587 1586 1587 1588 1589 1589 1590 1591 1592 1592 1593 1594 1595 1596 1596 1597 1598 1598 1599 1600 1600 1601 1601 1602 1603
1576 1577 1578 1579 1581 1582 1583 1583 1584 1584 1585 1585 1585 1586 1587 1587 1587 1588 1588 1587 1587 1588 1589 1589 1590 1591 1592 1592 1593 1594 1595 1596 1596 1597 1597 1598 1599 1599 1600 1601 1601 1602 1602
1576 1577 1579 1580 1581 1582 1582 1583 1584 1585 1585 1586 1586 1586 1587 1587 1588 1587 1588 1588 1588 1588 1588 1589 1589 1590 1591 1592 1593 1594 1594 1595 1596 1596 1597 1597 1598 1599 1599 1600 1601 1601 1602
1575 1577 1579 1581 1581 1582 1583 1583 1584 1585 1586 1586 1586 1587 1587 1587 1587 1587 1588 1588 1589 1589 1588 1588 1589 1589 1590 1591 1592 1592 1593 1594 1594 1595 1596 1596 1597 1598 1598 1599 1599 1600 1601
1575 1577 1578 1579 1580 1582 1583 1584 1584 1585 1586 1586 1586 1586 1587 1587 1586 1587 1587 1587 1587 1588 1588 1587 1588 1588 1589 1589 1590 1591 1592 1592 1593 1594 1594 1595 1595 1596 1596 1597 1598 1598 1599
1574 1576 1577 1578 1580 1581 1582 1583 1583 1583 1584 1585 1586 1586 1586 1586 1586 1586 1586 1586 1586 1586 1587 1587 1587 1587 1587 1588 1588 1589 1590 1590 1591 1591 1592 1592 1593 1594 1594 1595 1596 1596 1597
1573 1575 1577 1577 1578 1579 1580 1581 1582 1582 1583 1583 1584 1584 1584 1584 1584 1584 1584 1585 1585 1585 1585 1585 1585 1586 1586 1586 1586 1587 1587 1587 1588 1589 1589 1590 1590 1591 1592 1592 1593 1594 1594
1572 1573 1574 1575 1576 1577 1578 1579 1579 1580 1581 1582 1582 1583 1583 1583 1581 1582 1582 1582 1582 1583 1583 1583 1583 1583 1584 1584 1584 1584 1584 1585 1585 1586 1586 1587 1588 1588 1589 1589 1590 1590 1591
1570 1571 1572 1573 1574 1575 1576 1576 1577 1577 1579 1579 1580 1581 1581 1580 1580 1580 1579 1580 1579 1580 1580 1581 1580 1580 1580 1581 1581 1581 1581 1582 1582 1582 1583 1584 1584 1585 1585 1586 1586 1587 1588
1567 1568 1569 1570 1571 1572 1573 1574 1574 1575 1575 1576 1577 1577 1578 1578 1578 1578 1578 1577 1577 1576 1577 1578 1578 1578 1577 1578 1578 1578 1578 1578 1579 1579 1579 1580 1580 1581 1582 1582 1583 1583 1584
1565 1566 1567 1567 1568 1569 1570 1570 1571 1571 1572 1572 1574 1574 1575 1575 1575 1575 1575 1575 1575 1574 1574 1574 1574 1575 1575 1574 1574 1574 1574 1575 1575 1575 1576 1576 1577 1577 1578 1578 1579 1579 1580
1561 1562 1563 1563 1565 1565 1566 1566 1567 1567 1568 1568 1569 1570 1571 1571 1572 1572 1571 1571 1571 1571 1571 1571 1571 1571 1571 1571 1571 1570 1570 1570 1571 1571 1571 1572 1572 1573 1573 1574 1574 1575 1576
1558 1559 1560 1560 1561 1562 1562 1563 1563 1563 1563 1564 1564 1565 1566 1567 1568 1568 1568 1567 1567 1568 1567 1567 1567 1567 1567 1567 1566 1565 1565 1566 1566 1566 1567 1567 1567 1568 1569 1569 1570 1571 1571
1555 1556 1556 1557 1557 1558 1558 1558 1559 1559 1559 1559 1560 1560 1561 1562 1563 1563 1563 1564 1563 1563 1563 1563 1563 1562 1562 1562 1562 1561 1561 1561 1561 1561 1562 1562 1562 1563 1564 1564 1565 1565 1566
1551 1552 1552 1553 1553 1554 1554 1554 1554 1554 1555 1555 1555 1555 1556 1557 1557 1558 1558 1559 1560 1558 1558 1558 1558 1558 1558 1557 1557 1556 1556 1556 1556 1556 1556 1557 1557 1558 1558 1559 1559 1560 1561
1547 1548 1548 1549 1549 1550 1550 1550 1550 1550 1550 1550 1550 1551 1551 1551 1552 1552 1553 1553 1554 1554 1553 1553 1553 1554 1553 1553 1552 1552 1551 1551 1551 1551 1551 1551 1552 1552 1553 1553 1554 1554 1555
1543 1544 1545 1545 1545 1546 1546 1546 1546 1546 1546 1546 1546 1546 1546 1546 1547 1547 1547 1548 1548 1549 1548 1548 1549 1549 1548 1547 1547 1547 1546 1546 1546 1545 1545 1546 1546 1547 1547 1548 1548 1549 1549
1540 1540 1541 1541 1542 1542 1542 1542 1542 1542 1542 1542 1541 1541 1541 1542 1542 1542 1543 1543 1543 1543 1543 1542 1543 1543 1542 1542 1542 1541 1541 1541 1541 1540 1540 1540 1541 1541 1541 1542 1542 1543 1543
1537 1537 1538 1538 1538 1539 1539 1538 1538 1538 1538 1537 1537 1537 1537 1537 1537 1538 1538 1538 1538 1539 1538 1538 1538 1538 1537 1537 1537 1536 1536 1536 1536 1536 1535 1535 1535 1535 1536 1536 1536 1537 1537
1534 1534 1534 1535 1535 1536 1536 1536 1535 1535 1534 1533 1533 1533 1533 1533 1533 1533 1533 1533 1533 1534 1534 1534 1533 1533 1533 1533 1533 1532 1532 1531 1531 1531 1531 1530 1530 1530 1530 1530 1530 1531 1531
1531 1531 1531 1532 1532 1533 1533 1533 1532 1532 1531 1530 1530 1529 1529 1529 1529 1529 1529 1529 1529 1529 1530 1529 1529 1529 1529 1529 1528 1528 1528 1527 1526 1526 1526 1526 1525 1525 1524 1524 1524 1524 1525
1528 1529 1529 1529 1530 1531 1530 1530 1530 1529 1528 1528 1527 1527 1526 1526 1525 1525 1525 1525 1525 1526 1526 1526 1525 1525 1524 1525 1524 1524 1523 1523 1522 1523 1522 1521 1521 1520 1520 1519 1518 1518 1519
1526 1527 1527 1528 1528 1528 1528 1528 1527 1527 1526 1526 1525 1525 1524 1524 1523 1523 1522 1522 1522 1522 1522 1522 1522 1521 1521 1521 1520 1520 1519 1518 1518 1517 1517 1516 1516 1515 1515 1514 1513 1513 1513
1525 1525 1526 1526 1526 1526 1526 1526 1525 1525 1524 1524 1524 1523 1522 1522 1521 1520 1520 1520 1519 1519 1519 1519 1518 1518 1518 1517 1516 1516 1515 1514 1513 1513 1513 1512 1511 1511 1510 1510 1508 1508 1507
1523 1524 1525 1525 1525 1524 1524 1524 1524 1523 1523 1522 1522 1522 1521 1520 1520 1519 1519 1518 1518 1518 1518 1517 1516 1515 1514 1513 1513 1512 1512 1512 1511 1510 1509 1508 1507 1506 1506 1505 1504 1503 1502
1522 1523 1524 1524 1524 1523 1523 1523 1523 1523 1522 1522 1521 1521 1520 1520 1519 1518 1518 1517 1517 1516 1516 1515 1514 1513 1512 1511 1510 1510 1509 1509 1508 1507 1506 1505 1504 1503 1502 1501 1501 1499 1498